Regional Weather Roundup
Issued by NWS Charleston, SC

Current Version | Previous Version | Text Only | Print | Product List | Glossary Off
Versions: 1 2 3 4 5 6 7 8 9 10 11 12 13 14 15 16 17 18 19 20 21 22 23 24 25 26 27 28 29 30 31 32 33 34 35 36 37 38 39 40 41 42 43 44 45 46 47 48 49 50
000 ASUS42 KCHS 040312 RWRCHS REGIONAL WEATHER ROUNDUP NATIONAL WEATHER SERVICE CHARLESTON SC 1100 PM EDT THU SEP 03 2015 NOTE: "FAIR" INDICATES FEW OR NO CLOUDS BELOW 12,000 FEET WITH NO SIGNIFICANT WEATHER AND/OR OBSTRUCTIONS TO VISIBILITY. NOT ALL STATIONS ARE QUALITY CONTROLLED BY THE NATIONAL WEATHER SERVICE. USE DATA WITH CAUTION...ESPECIALLY DEWPOINT OBSERVATIONS. SCZ027-030-031-034>040-042>050-040400- ...SOUTHEAST SOUTH CAROLINA... CITY SKY/WX TMP DP RH WIND PRES REMARKS N CHARLESTON MOCLDY 78 75 90 CALM 29.91S WATERFRONT PRK N/A 80 76 87 VRB2 29.88S MOUNT PLEASANT FAIR 77 75 94 CALM 29.91S JOHNS ISLAND FAIR 77 75 94 CALM 29.91S PINOPOLIS N/A 82 75 78 CALM 29.84R MONCKS CORNER FAIR 79 73 83 CALM 29.91S SUMMERVILLE FAIR 77 77 100 SW3 29.91F BEAUFORT MCAS MOCLDY 79 75 87 CALM 29.92S BEAUFORT ARPT FAIR 79 77 94 CALM 29.91S HILTON HEAD IS MOCLDY 77 75 94 CALM 29.93S WALTERBORO PTCLDY 79 75 89 S5 29.92F ALLENDALE MOCLDY 79 75 89 CALM 29.91F ...SOUTHERN MIDLANDS AND PEE DEE... CITY SKY/WX TMP DP RH WIND PRES REMARKS GEORGETOWN NOT AVBL KINGSTREE NOT AVBL ORANGEBURG MOCLDY 76 74 93 SW5 29.92F BARNWELL FAIR 79 75 89 CALM 29.93S AIKEN FAIR 73 70 88 CALM 29.97S MANNING FAIR 77 72 83 CALM 29.92S COLUMBIA PTCLDY 78 72 81 SW3 29.91S SUMTER PTCLDY 79 73 83 N1 29.90R FLORENCE PTCLDY 77 69 76 CALM 29.91S MYRTLE BEACH CLOUDY 75 70 83 CALM 29.93R N MYRTLE BEACH MOCLDY 75 71 87 CALM 29.91R $$ GAZ063-065-086>088-099>101-113>116-118-119-134>141-150-040400- ...SOUTHEAST GEORGIA... CITY SKY/WX TMP DP RH WIND PRES REMARKS SAVANNAH ARPT CLOUDY 80 76 87 SE5 29.93R HUNTER AAF MOCLDY 79 79 100 CALM 29.91R FORT STEWART CLOUDY 79 77 93 CALM 29.91R STATESBORO MOCLDY 77 77 100 CALM 29.93R SYLVANIA NOT AVBL CLAXTON NOT AVBL ...CSRA...CENTRAL AND FAR SOUTHEAST GEORGIA... CITY SKY/WX TMP DP RH WIND PRES REMARKS THOMSON MOCLDY 78 78 99 CALM 29.98R AUGUSTA-BUSH MOCLDY 75 75 100 CALM 29.91S AUGUSTA-DANIEL MOCLDY 82 73 74 CALM 29.94R SWAINSBORO FAIR 79 75 89 CALM 29.94S VIDALIA PTCLDY 77 75 94 CALM 29.94R EASTMAN FOG 76 76 100 CALM 29.96R VSB 1/4 HAZLEHURST FAIR 78 78 100 CALM 29.93R ALMA CLEAR 76 76 100 CALM 29.94R FOG WAYCROSS PTCLDY 81 80 99 CALM 29.94R HX 91 JESUP FAIR 81 79 94 CALM 29.94R BAXLEY FAIR 79 77 94 SW5 29.94R BRUNSWICK CLOUDY 77 75 94 CALM 29.95R SAINT SIMONS CLOUDY 78 77 96 SW3 29.93R $$ SCZ027-028-034-036>038-045-046-048>050-GAZ119-141-040400- ...LAKE AND SUPPLEMENTAL COASTAL OBSERVATIONS... STATION/POSITION TIME TEMP WIND PRES WAVE SWELL AIR SEA DIR/SP/G HT/PER HT/PER/DIR (UTC) (F) (DEG/KT/KT) (MB) (FT/S) (FT/S/D) UPR LAKE MARION NOT AVBL WINYAH BAY NOT AVBL LAKE MURRAY 0200 83 220/ 2/ 3 1012.9R ACE BASIN NERRS NOT AVBL FORT PULASKI 0200 80 83 140/ 1/ 2 1013.5R SAPELO ISLAND 0200 79 CALM 1013.0S $$ ANZ835-935-AMZ111-154-330-350-352-354-370-450-454-472-040400- ...C-MAN AND BUOY OBSERVATIONS... STATION/POSITION TIME TEMP WIND PRES WAVE SWELL AIR SEA DIR/SP/G HT/PER HT/PER/DIR (UTC) (F) (DEG/KT/KT) (MB) (FT/S) (FT/S/D) BUOY 41004 0250 81 84 250/ 4/ 6 1012.8R 2/ 9 2/ 9 BUOY 41008 0250 81 84 120/ 2/ 4 1013.5R 2/ 4 2/120/ 8 FOLLY BEACH CMAN 0200 80 230/ 4/ 5 1012.9F CAPERS NEARSHORE 0208 82 220/ 8/ 10 1012.9R FRIPP NEARSHORE NOT AVBL STATION/POSITION TIME TEMP WIND PRES WAVE SWELL AIR SEA DIR/SP/G HT/PER HT/PER/DIR (UTC) (F) (DEG/KT/KT) (MB) (FT/S) (FT/S/D) 5E ST. MARYS GA 0221 85 N/A 1/ 3 FRYING PAN BUOY 0250 81 81 270/ 6/ 6 1012.9S 2/ 4 2/180/ 8 BUOY 41025 0250 81 85 280/ 6/ 8 1012.5F 1/ 9 2/ 90/ 9 CAPE LOOKOUT NC 0200 80 270/ 5/ 7 1012.2S BUOY 41002 0250 83 84 290/ 4/ 6 1013.0R 2/13 2/ 80/13 BUOY 41010 0220 84 86 240/ 8/ 10 1013.8R ST AUGUSTINE FL 0300 80 84 230/ 3/ 4 1014.9R $$

USA.gov is the U.S. government's official web portal to all federal, state and local government web resources and services.